20:09
Airports
History
Links
Donate
Help keep this website running!
PayPal
Bitcoin
This page is community maintained. The information is intended for PC simulator navigation or reference.
Always use approved charts for navigation.
ENAT
ALTA
ALTA (ENAT)
Alta, Finnmark, Norway (9515)
(C)
Lat/Lng:69° 58' 38.46" N / 23° 21' 55.56" E
69.977351 / 23.365433
Elevation:9'ft / 3mMSL
ID / ICAO:ENAT
Runways:1
Longest:11-29
Asphalt 2,173m / 7,128ft
Controlled:Yes
METAR18:50 GMT 2017-11-22
Altimeter: 30.27
Visibility: 6.2 statute miles
Wind: 9 knots (from 200°)
Temp: -14°c / 7°f
Humidity: 84.7%

METAR: ENAT 221850Z 20009KT CAVOK M14/M16 Q1025 RMK WIND 700FT 18010KT

(Powered by phpweather)
Airport Radio Frequencies
ATIS: 118.17
Tower: 118.1, 120.4
Nearby VORs <50NM
Nearby NDBs
Runway 11 / 29
Dimensions:2172.6 x 39.9m 7128' x 131'ft
Surface:Asphalt
Edge Lights:High intensity
Runway 11 [A]Runway 29 [B]
Heading:121°TH 301°TH
Lat:
Lng:
69° 58' 56.71"N
23° 20' 27.58"E
69° 58' 20.22"N
23° 23' 23.54"E
User Notes and Comments
69° 58' 38.46" N / 23° 21' 55.56" E
Distance To
Airport ID:
Nearby Airports
(C) BANAK 38.5 NM
ENNA ( WX ) E 80°
(U) HASVIK 45.3 NM
ENHK NW 320°
(C) Hammerfest 49.0 NM
ENHF ( WX ) N
(C) Sorkjosen 58.7 NM
ENSR ( WX ) WSW 257°
(C) Kautokeino 65.2 NM
ENKA S 187°
(C) Honningsvaag Valan 93.5 NM
ENHV ( WX ) NE 40°
(U) Jakalapaa 105.1 NM
EFJP SE 146°
VFR Chart
Flight Planning at SkyVector.com